Regional Weather Roundup
Issued by NWS

Home | Current Version | Previous Version | Text Only | Print | Product List | Glossary On
Versions: 1 2 3 4 5 6 7 8 9 10 11 12 13 14 15 16 17 18 19 20 21 22 23 24 25 26 27 28 29 30 31 32 33 34 35 36 37 38 39 40 41 42 43 44 45 46 47 48 49 50
000
ASUS43 KBIS 110110
RWRND

NORTH DAKOTA REGIONAL WEATHER ROUNDUP
NATIONAL WEATHER SERVICE BISMARCK ND
800 PM CDT THU JUL 10 2014

NOTE: "FAIR" INDICATES FEW OR NO CLOUDS BELOW 12,000 FEET WITH NO
SIGNIFICANT WEATHER AND/OR OBSTRUCTIONS TO VISIBILITY.


NDZ001>003-009>011-017-110200-
NORTHWEST NORTH DAKOTA

CITY           SKY/WX    TMP DP  RH WIND       PRES   REMARKS
WILLISTON      SUNNY     84  66  54 N23G32    29.72R
MINOT          SUNNY     79  64  60 S12G22    29.74S
MINOT AFB      SUNNY     79  68  69 S9        29.73S
$$

NDZ018>021-031>035-040>046-110200-
SOUTHWEST NORTH DAKOTA

CITY           SKY/WX    TMP DP  RH WIND       PRES   REMARKS
BISMARCK       SUNNY     77  67  71 S9        29.79F
DICKINSON      SUNNY     80  67  64 SE9       29.78S
GARRISON         N/A     78  66  66 S7        29.77S
HETTINGER ARPT SUNNY     81  66  60 SE7       29.82R
$$

NDZ004>008-012>016-024-026-027-054-110200-
NORTHEAST NORTH DAKOTA

CITY           SKY/WX    TMP DP  RH WIND       PRES   REMARKS
GRAND FORKS    CLOUDY    79  63  57 SE10      29.80S
GRND FRKS AFB  PTSUNNY   78  66  65 SE9       29.80F
DEVILS LAKE    SUNNY     75  63  64 S13       29.79R
$$

NDZ022-023-025-028>030-036>039-047>053-110200-
SOUTHEAST NORTH DAKOTA

CITY           SKY/WX    TMP DP  RH WIND       PRES   REMARKS
FARGO          CLOUDY    70  68  93 E5        29.85S
JAMESTOWN      PTSUNNY   73  65  75 S10       29.81F
$$




USA.gov is the U.S. government's official web portal to all federal, state and local government web resources and services.